TimeMST,TemperatureF,Dew PointF,Humidity,Sea Level PressureIn,VisibilityMPH,Wind Direction,Wind SpeedMPH,Gust SpeedMPH,PrecipitationIn,Events,Conditions,WindDirDegrees,DateUTC
12:53 AM,1.0,-2.9,83,30.45,9.0,NNW,3.5,-,N/A,,Clear,330,2013-01-06 07:53:00
1:53 AM,-0.0,-4.0,83,30.43,8.0,Calm,Calm,-,N/A,,Clear,0,2013-01-06 08:53:00
2:53 AM,1.9,-2.0,83,30.42,8.0,Calm,Calm,-,N/A,,Clear,0,2013-01-06 09:53:00
3:53 AM,1.9,-2.0,83,30.42,9.0,Calm,Calm,-,N/A,,Clear,0,2013-01-06 10:53:00
4:53 AM,1.9,-2.0,83,30.41,9.0,Calm,Calm,-,N/A,,Clear,0,2013-01-06 11:53:00
5:53 AM,1.9,-2.0,83,30.39,10.0,NW,3.5,-,N/A,,Clear,310,2013-01-06 12:53:00
6:53 AM,-0.0,-5.1,79,30.39,9.0,Calm,Calm,-,N/A,,Clear,0,2013-01-06 13:53:00
7:53 AM,5.0,-0.0,80,30.37,10.0,Calm,Calm,-,N/A,,Clear,0,2013-01-06 14:53:00
8:53 AM,3.9,-0.0,84,30.37,7.0,Calm,Calm,-,N/A,,Clear,0,2013-01-06 15:53:00
9:53 AM,7.0,3.0,84,30.37,8.0,Calm,Calm,-,N/A,,Clear,0,2013-01-06 16:53:00
10:53 AM,10.9,3.9,73,30.30,10.0,Calm,Calm,-,N/A,,Clear,0,2013-01-06 17:53:00
11:53 AM,16.0,7.0,68,30.25,10.0,Variable,3.5,-,N/A,,Clear,0,2013-01-06 18:53:00
12:53 PM,18.0,8.1,65,30.21,10.0,East,5.8,-,N/A,,Clear,100,2013-01-06 19:53:00
1:53 PM,21.9,9.0,58,30.17,10.0,Calm,Calm,-,N/A,,Clear,0,2013-01-06 20:53:00
2:53 PM,21.0,10.0,63,30.16,10.0,NNE,8.1,-,N/A,,Clear,20,2013-01-06 21:53:00
3:53 PM,19.0,10.0,68,30.18,10.0,SSE,4.6,-,N/A,,Clear,160,2013-01-06 22:53:00
4:53 PM,16.0,8.1,71,30.19,10.0,SSE,3.5,-,N/A,,Clear,160,2013-01-06 23:53:00
5:53 PM,16.0,8.1,71,30.16,10.0,WSW,3.5,-,N/A,,Clear,250,2013-01-07 00:53:00
6:53 PM,12.0,6.1,77,30.20,10.0,WNW,10.4,24.2,N/A,,Clear,290,2013-01-07 01:53:00
7:53 PM,15.1,7.0,70,30.17,10.0,WSW,9.2,-,N/A,,Clear,250,2013-01-07 02:53:00
8:53 PM,10.0,3.9,76,30.19,10.0,Calm,Calm,-,N/A,,Clear,0,2013-01-07 03:53:00
9:53 PM,7.0,3.0,84,30.20,7.0,NW,4.6,-,N/A,,Clear,310,2013-01-07 04:53:00
10:53 PM,10.0,3.9,76,30.15,10.0,Variable,5.8,-,N/A,,Clear,0,2013-01-07 05:53:00
11:53 PM,6.1,1.9,83,30.16,6.0,WSW,5.8,-,N/A,,Clear,240,2013-01-07 06:53:00